Location: Dalton
(34.7700°N, 84.9700°W)
Time: 08:23:15
(UTC-04:00)

Hubble Space Telescope - Pass Details

Date: 09 October 2017
Orbit: 537 x 541 km, 28.5° (Epoch: 20 October)

Event Time Altitude Azimuth Distance (km) Brightness Sun altitude
Exits shadow 06:53:05 11° 241° (WSW) 1,711 2.8 -10.6°
Maximum altitude 06:55:47 19° 197° (SSW) 1,300 2.6 -10.1°
Drops below altitude 10° 06:58:47 10° 151° (SSE) 1,785 3.9 -9.5°
Sets 07:01:31 0° 133° (SE) 2,675 5.2 -8.9°
